Wind_Speed
54 53 50 48 47 47 47 47 49 51 54 57 60 62 63 64 64 64 65 66 68 70 71 71 71 71 71 70 68 65 62 60 58 55 53 52 52 51 51 52 53 55 56 57 58 59 60 60 60 60 60 59 59 59 59 59 59 58 57 56 56 56 56 56 56 56 56 56 56 56 56 56 56 56 57 57 57 57 57 57 56 56 56 56 55 55
56 55 53 52 50 49 48 47 48 49 51 53 55 57 59 61 62 63 63 64 66 67 68 69 69 70 69 68 66 63 60 58 55 53 52 52 52 52 53 54 54 55 56 58 59 59 60 60 60 60 59 59 59 59 59 59 58 58 57 57 56 56 56 56 56 56 56 56 56 56 56 56 56 56 56 56 56 56 56 56 56 56 55 55 55 54
56 55 55 54 53 52 51 50 49 49 50 51 53 54 56 58 59 61 63 64 65 66 68 68 69 69 68 67 64 62 59 56 54 53 53 53 54 55 55 56 56 57 58 58 59 60 60 60 59 59 59 59 59 59 59 59 58 58 57 57 57 57 57 56 56 56 56 57 57 57 56 56 56 56 56 56 56 56 56 55 55 55 55 55 55 54
55 55 55 55 54 53 53 52 51 51 51 51 52 53 54 56 58 60 61 63 65 66 67 68 68 67 66 65 63 60 58 56 54 54 55 56 57 57 58 58 58 59 59 60 60 60 60 59 59 59 59 59 59 59 59 59 58 58 58 58 58 57 57 57 57 57 57 57 57 56 56 55 55 55 55 55 55 55 55 55 55 55 55 55 55 54
54 54 54 54 54 54 54 53 53 52 52 52 52 53 54 55 57 58 60 61 63 64 65 65 65 64 63 61 60 58 57 56 55 56 57 58 59 59 60 60 60 61 61 61 61 60 60 59 59 59 59 59 59 59 59 59 59 59 59 59 58 58 57 57 57 57 57 56 56 55 55 55 54 54 54 54 55 55 55 55 55 55 55 55 55 54
53 53 53 53 53 53 54 54 53 53 53 53 53 54 54 55 56 57 58 59 60 60 61 60 59 59 58 58 57 57 57 56 56 57 58 59 60 61 61 62 62 62 62 62 61 61 60 60 59 59 59 59 59 59 59 59 59 59 59 59 58 58 57 57 57 56 56 55 55 54 54 54 54 54 54 54 54 55 55 55 55 55 55 55 54 53
51 51 52 52 52 53 53 53 53 53 53 54 54 54 55 55 55 55 55 55 55 55 55 54 54 55 55 56 56 56 56 56 56 57 58 60 61 62 62 63 63 63 62 62 61 61 60 60 59 59 59 59 59 59 59 59 59 59 59 58 58 57 56 56 55 55 54 54 54 54 54 54 54 54 54 54 55 55 55 56 55 55 55 55 54 53
50 50 50 51 52 52 53 53 53 53 54 54 55 55 55 55 54 54 53 52 51 51 51 51 53 54 55 55 55 55 55 55 56 57 58 60 61 62 62 62 62 62 61 61 61 60 60 59 59 59 58 58 58 58 58 58 58 58 57 57 56 55 55 54 54 54 54 54 54 54 54 54 54 54 54 55 55 55 56 56 56 55 55 54 53 52
50 50 51 51 52 52 53 53 54 54 54 55 56 56 56 55 54 52 51 50 49 49 50 51 53 54 55 55 55 55 55 55 56 57 58 58 59 59 60 60 60 59 59 59 59 59 58 58 58 58 58 58 58 57 57 57 57 56 56 55 54 54 54 54 54 54 54 54 54 54 54 54 54 54 55 55 55 56 56 56 55 55 54 54 52 51
52 52 52 53 53 54 54 55 55 56 56 56 57 57 57 56 54 52 50 49 49 50 51 53 54 55 55 56 56 56 57 57 57 57 57 57 57 57 57 57 57 57 57 57 57 57 57 57 57 57 57 57 57 56 56 56 55 55 54 54 54 54 54 54 54 54 54 54 55 54 55 55 55 55 55 55 55 56 56 55 55 54 54 53 52 50
53 53 53 54 55 55 56 56 57 57 57 58 58 58 58 57 55 53 51 50 50 51 53 55 56 56 57 57 58 58 58 58 58 57 56 56 56 56 56 57 57 57 57 57 56 56 56 56 56 56 56 56 56 55 55 55 54 54 54 54 54 54 54 55 55 55 55 55 55 55 55 55 55 55 55 55 55 55 55 55 55 54 53 52 51 50
53 53 52 53 53 54 55 56 57 57 57 58 58 58 58 57 56 55 53 52 52 53 54 56 58 58 59 59 60 60 59 58 58 56 56 55 56 56 57 57 58 57 57 56 55 55 55 55 56 56 56 56 55 55 55 54 54 54 54 54 55 55 55 55 55 55 55 56 55 56 55 55 55 55 55 55 55 55 55 55 54 53 53 52 51 50
54 53 52 52 52 52 53 54 55 55 56 56 56 56 56 57 56 56 56 55 55 55 55 56 58 59 60 60 60 60 59 58 57 56 55 55 56 56 57 57 56 56 55 54 54 54 55 55 56 56 56 56 55 55 55 55 54 55 55 55 55 56 56 56 56 56 56 56 56 56 55 55 55 55 55 55 55 55 54 54 54 53 52 51 50 50
56 55 54 53 52 52 52 52 53 54 54 55 55 56 56 56 56 57 57 57 57 56 55 55 55 56 57 57 58 58 57 56 56 55 54 55 55 56 55 54 54 53 52 53 53 54 56 56 56 56 56 56 55 55 55 55 55 55 55 55 56 56 56 56 56 56 56 56 56 55 55 55 55 55 55 55 54 54 54 54 53 53 52 51 50 50
58 57 56 56 56 55 55 54 54 55 55 55 55 56 56 57 57 57 57 57 58 57 55 53 53 52 52 52 52 53 53 53 53 53 54 54 54 54 53 52 52 52 53 54 55 56 57 57 56 56 56 56 56 56 56 56 56 56 56 55 55 55 55 55 55 55 55 55 55 55 55 55 55 54 54 54 54 54 54 54 53 53 52 51 50 50
59 59 59 59 59 59 59 58 58 58 58 58 58 57 57 57 57 57 57 57 58 57 54 52 50 49 49 49 49 48 49 50 51 52 52 53 53 53 52 51 52 54 55 56 57 57 58 58 57 57 57 56 56 56 56 56 56 55 55 55 55 55 55 55 55 55 55 55 55 55 54 54 54 54 54 54 54 54 54 53 53 52 52 51 50 50
59 60 60 61 60 60 60 60 60 61 61 61 61 60 60 59 59 58 58 58 57 56 55 53 50 47 47 49 49 50 50 51 52 52 52 53 53 53 52 52 53 56 57 58 59 59 60 59 58 57 57 56 56 56 56 55 55 55 54 54 54 54 54 54 54 55 54 54 54 54 54 54 54 54 54 54 54 54 54 53 53 52 52 51 50 50
59 60 60 60 59 59 58 59 59 61 62 62 62 63 63 62 61 60 59 58 57 56 56 54 52 50 48 49 51 53 53 54 54 54 54 54 54 54 53 53 55 57 58 60 60 61 61 60 59 58 56 56 56 55 55 54 54 54 53 53 53 53 54 54 54 54 54 54 54 54 54 54 54 54 54 54 54 54 54 53 53 52 52 51 51 50
59 60 60 60 59 58 57 56 56 58 59 61 62 63 63 63 62 61 60 59 58 57 56 55 55 53 52 52 54 55 55 55 56 56 56 55 55 55 55 55 57 58 60 61 62 62 62 60 59 57 56 55 55 54 54 53 53 53 53 53 53 53 53 53 54 54 54 54 54 54 54 54 54 54 54 54 54 54 53 53 53 52 52 51 51 51
59 60 61 61 60 58 56 55 55 55 56 58 60 61 61 62 62 61 60 59 58 58 57 57 57 57 56 56 56 57 57 56 57 57 57 57 56 56 56 57 58 59 60 61 62 62 61 59 58 56 55 54 54 53 53 53 53 53 53 53 53 53 53 53 54 54 54 54 54 54 54 54 54 54 54 54 54 54 53 53 53 52 52 51 51 51
60 60 61 61 60 57 55 55 55 55 55 56 57 58 60 61 61 60 60 59 58 58 58 58 59 60 60 59 59 59 59 58 57 57 57 56 56 56 57 57 58 60 61 62 62 61 60 59 57 56 54 54 53 53 53 53 53 53 53 53 53 53 54 54 54 54 54 54 54 54 54 54 54 54 54 54 54 53 53 53 53 52 52 52 51 51
61 61 61 61 60 58 57 57 56 54 54 54 55 56 58 59 59 59 59 58 58 58 59 60 61 63 63 62 62 61 60 58 57 57 56 54 54 56 57 59 60 62 63 63 62 61 59 58 57 55 54 53 53 53 53 53 53 53 54 54 54 54 54 54 54 54 54 54 54 54 54 54 54 54 54 54 53 53 53 53 52 52 52 52 52 52
66 64 63 62 61 61 60 59 57 55 54 53 54 55 56 57 57 58 58 58 58 58 59 61 63 64 64 64 63 62 60 58 57 56 55 53 54 55 57 59 61 64 64 63 62 60 58 57 56 55 53 53 53 53 54 54 54 54 55 55 55 55 55 55 55 55 54 54 54 54 54 55 54 54 54 53 53 53 53 52 52 52 52 52 52 52
71 70 68 66 65 64 63 62 60 58 55 54 54 54 55 55 56 57 57 57 58 58 60 61 62 63 64 63 62 61 60 58 57 56 54 53 53 54 55 56 59 62 64 63 60 58 56 55 54 53 52 52 53 54 54 55 55 55 56 56 55 55 55 55 55 55 54 54 54 54 54 54 54 54 54 53 53 53 52 52 52 52 52 52 53 53
76 76 75 73 71 69 67 66 64 62 59 57 56 56 55 55 55 56 57 57 58 58 59 60 60 61 61 61 59 58 59 58 57 55 55 54 53 53 53 55 57 59 61 60 58 55 54 54 53 52 51 52 53 54 55 56 56 57 56 56 56 56 56 55 55 55 54 54 54 54 55 54 54 54 54 53 53 53 53 52 52 53 53 53 54 54
78 79 79 79 78 76 73 71 69 67 64 62 60 59 58 57 56 56 57 58 58 59 59 59 59 60 60 58 57 57 58 58 57 56 55 54 54 54 54 55 56 57 58 58 57 55 53 54 54 53 52 53 54 55 56 57 57 58 57 57 56 56 56 55 55 55 55 55 55 55 55 54 54 54 54 53 53 53 53 53 53 53 54 54 55 55
78 79 80 82 82 81 79 77 75 73 70 68 66 64 62 61 59 58 58 59 60 60 60 60 61 61 60 58 58 58 59 59 58 57 57 56 55 56 56 57 56 57 58 59 58 57 56 56 56 56 55 55 56 57 58 59 59 59 58 58 57 56 56 56 56 56 55 55 55 55 55 55 55 54 54 54 54 54 54 54 54 54 55 55 56 56
78 79 80 81 82 83 83 81 80 78 75 73 71 69 67 65 64 63 62 63 63 63 63 63 64 63 62 61 60 61 61 60 60 59 59 58 58 59 60 59 58 58 59 60 61 61 60 60 60 59 58 58 59 59 60 60 60 59 59 58 57 57 56 56 56 56 56 56 56 56 56 55 55 55 55 55 55 55 55 55 55 56 56 56 57 57
79 79 80 81 82 82 82 82 81 79 77 75 74 72 71 70 69 68 68 68 66 65 66 67 67 66 65 64 63 63 62 61 61 61 60 59 60 62 64 63 62 62 62 63 63 63 63 63 62 62 61 62 62 62 62 62 61 60 60 59 58 57 56 56 56 56 57 57 56 56 56 56 56 56 56 56 56 56 56 56 57 57 57 58 58 58
80 80 80 80 81 81 81 81 80 79 77 75 74 73 72 72 72 72 72 71 69 68 69 69 69 68 67 66 65 64 63 63 62 61 60 59 61 63 65 65 65 66 66 66 66 66 66 65 65 64 63 64 64 64 63 62 61 61 60 59 58 57 56 56 57 57 57 57 57 57 57 57 57 57 57 57 57 58 58 58 58 58 58 58 59 59
82 81 81 80 81 81 81 80 80 79 77 75 73 72 71 71 71 72 73 72 71 70 70 70 70 70 69 67 66 64 64 64 64 62 61 60 61 63 65 65 66 67 68 68 67 67 67 67 66 65 64 64 64 64 64 63 62 61 60 59 58 58 57 57 57 58 58 58 58 58 58 58 58 58 58 58 59 59 59 59 59 59 59 59 59 60
84 83 82 82 81 81 81 80 80 79 78 76 74 72 71 70 70 71 71 71 71 70 70 70 70 69 69 68 66 66 65 65 65 64 62 62 62 64 65 65 65 67 68 68 67 67 67 67 66 66 64 64 64 64 64 63 62 61 60 59 59 58 58 58 58 58 59 59 59 59 59 59 59 59 60 60 60 60 60 59 59 59 59 59 60 60
85 85 84 83 83 82 82 81 80 80 79 77 76 74 72 71 70 70 70 70 70 69 69 69 69 68 68 67 67 67 67 67 66 65 64 63 64 65 65 65 65 65 66 66 66 66 65 65 65 65 64 64 64 64 63 63 62 61 60 59 59 59 59 59 59 59 59 59 59 60 60 60 60 60 60 60 60 60 60 60 59 59 59 60 60 61
86 86 85 85 84 84 83 82 82 81 80 79 78 76 74 73 72 71 70 70 70 69 69 68 68 68 67 67 67 67 67 67 67 66 65 65 65 66 66 65 65 65 65 65 65 65 64 64 64 64 64 64 64 63 63 62 62 61 60 59 59 59 59 59 59 59 59 59 60 60 60 60 60 60 60 60 60 60 60 60 60 60 61 61 61 62
87 87 86 86 85 85 84 84 83 82 81 80 79 78 76 75 73 72 71 70 70 69 69 68 68 68 67 67 67 67 67 68 68 67 66 66 66 67 66 66 66 65 65 65 65 64 64 64 64 64 64 64 64 63 62 61 60 60 60 59 59 59 59 59 59 59 59 60 60 60 60 60 60 60 60 60 60 60 60 61 61 62 62 62 63 63
87 86 86 86 86 85 85 85 84 84 83 82 81 80 79 77 75 74 73 72 71 70 69 69 69 68 68 68 67 67 68 68 68 67 67 67 67 67 66 66 66 65 64 64 64 64 64 63 63 63 63 63 63 62 62 61 60 59 59 59 59 59 59 59 59 59 59 60 60 60 60 60 60 60 61 61 61 61 62 62 63 63 64 64 65 65
86 86 86 85 85 85 84 84 84 84 83 83 82 82 80 79 78 77 75 74 72 71 71 70 69 69 69 68 68 68 68 68 68 67 67 67 67 66 66 66 66 65 64 64 64 64 63 63 63 63 62 62 62 61 61 60 59 59 59 59 59 59 59 59 60 60 60 60 61 61 61 61 61 62 62 62 63 63 63 64 64 65 65 65 66 66
86 86 85 84 83 83 82 82 82 82 82 82 82 82 82 81 80 79 78 76 75 74 72 72 71 70 70 69 69 68 68 68 67 67 66 66 66 66 66 66 66 65 64 64 64 64 63 63 63 62 62 62 61 61 60 60 60 59 60 60 60 60 60 60 60 60 60 61 61 62 62 62 63 63 64 64 64 65 65 66 66 66 66 66 67 67
86 85 84 83 82 81 80 80 80 80 80 80 81 81 82 82 81 81 80 78 77 76 74 73 72 72 71 70 70 69 68 68 67 67 66 66 65 65 65 65 65 65 65 64 64 64 64 63 63 63 62 62 61 61 61 60 60 60 61 61 61 61 61 61 61 61 62 62 62 63 64 64 64 65 65 66 66 66 66 67 67 67 67 67 67 68
85 84 83 82 81 80 79 78 78 78 78 78 78 79 79 80 80 80 80 79 78 77 76 75 74 73 72 71 71 70 69 68 67 67 66 65 65 65 64 64 65 65 65 64 64 64 64 64 63 63 63 62 62 62 62 61 61 61 61 61 61 62 62 62 61 62 63 63 64 64 65 66 66 67 67 67 67 67 67 68 68 68 68 67 67 68
84 83 82 82 81 79 78 78 78 77 76 76 76 76 76 76 76 77 77 77 77 76 76 75 74 74 73 73 72 71 70 69 68 67 66 65 65 65 64 64 64 65 65 64 64 64 64 64 63 63 63 63 63 62 62 62 62 62 62 61 62 62 63 62 62 63 63 64 65 66 66 67 68 68 68 68 68 68 68 68 68 68 68 68 68 68
83 82 82 81 80 79 78 78 77 76 76 75 74 74 74 73 73 73 73 73 73 74 74 73 73 73 72 72 72 71 70 70 69 68 67 66 66 65 65 65 65 65 65 65 64 64 64 64 63 63 63 63 63 63 63 64 63 63 62 62 62 63 63 63 64 64 64 65 66 67 67 68 68 68 68 68 68 68 68 68 68 68 69 69 69 68
82 82 82 81 80 79 79 78 77 76 75 74 74 73 73 72 71 71 71 71 71 71 71 70 70 70 70 70 70 70 70 70 69 68 68 67 67 66 66 66 66 65 65 65 65 65 65 64 64 64 64 64 64 63 64 64 64 63 62 62 63 63 63 64 65 65 65 66 67 68 68 68 68 68 68 68 68 68 69 69 69 69 69 68 68 67
82 82 82 81 80 80 79 77 76 76 75 74 73 73 73 72 71 70 70 70 70 69 69 68 68 68 68 68 68 68 68 68 67 67 67 66 66 66 65 65 65 65 65 65 64 64 64 64 64 64 64 64 64 64 64 64 63 63 63 63 63 63 63 65 65 66 66 67 67 68 68 68 68 68 69 68 68 69 69 69 69 68 68 67 66 66
83 82 82 81 80 79 78 77 76 76 75 74 73 73 73 72 71 71 70 70 70 69 69 68 67 67 66 67 67 66 65 65 65 65 64 64 64 64 63 63 63 64 63 63 63 63 63 62 63 63 63 63 63 63 63 63 63 63 63 63 63 63 64 65 66 66 66 67 68 68 68 68 68 68 68 68 68 68 68 68 67 67 66 66 65 64
82 82 81 81 80 79 78 77 77 75 74 74 74 73 73 72 72 71 71 71 71 70 70 69 68 67 67 67 67 66 65 65 64 64 63 63 62 62 62 62 62 62 62 62 62 62 62 61 62 62 62 62 62 62 63 62 62 63 63 64 64 64 64 65 66 66 66 67 67 68 68 68 67 67 67 67 67 67 67 66 65 65 65 64 64 63
82 82 81 80 80 79 78 78 76 75 74 74 74 74 73 73 72 72 72 72 72 72 72 71 71 70 70 70 69 68 67 67 66 66 65 65 64 64 63 63 63 63 62 62 62 62 62 62 62 61 61 61 62 62 62 62 62 63 64 64 64 64 64 65 66 66 66 67 67 67 67 67 66 66 66 66 65 65 65 65 64 63 63 62 62 61
82 81 81 80 80 79 78 77 76 75 75 74 74 74 73 73 73 73 73 73 73 73 73 73 73 72 73 72 72 71 70 70 70 69 69 68 68 67 67 67 66 66 66 66 65 65 64 64 63 63 62 62 62 62 63 63 63 63 64 64 64 64 64 65 66 66 66 66 66 66 66 65 65 64 64 64 64 63 63 63 62 62 61 60 59 59
81 81 80 80 79 78 78 77 76 75 74 74 74 73 73 73 73 73 73 74 74 74 74 74 74 74 74 74 74 74 73 73 72 72 72 71 71 71 70 70 70 70 70 70 69 69 69 68 68 67 66 65 64 64 64 64 64 64 64 64 64 64 64 65 65 65 65 65 65 65 65 64 63 63 63 62 62 62 61 61 60 60 59 58 57 57
80 80 79 79 78 78 77 77 76 75 74 74 73 73 73 73 72 72 73 73 73 73 73 73 73 73 73 74 74 74 73 73 73 73 72 72 72 71 71 71 71 71 71 71 71 70 70 70 70 70 69 67 66 65 65 65 65 64 64 64 64 64 64 64 64 65 64 64 64 63 63 62 62 62 61 60 60 60 59 58 58 57 57 56 55 55
79 78 78 78 77 77 76 76 75 74 74 73 72 72 72 71 71 71 71 71 71 71 72 72 72 71 71 72 72 72 71 71 71 71 71 70 70 69 69 69 69 69 68 69 69 69 68 68 67 68 68 68 66 65 64 65 65 64 63 63 63 63 62 63 63 63 63 62 62 62 61 61 60 60 59 58 57 57 57 56 56 56 56 55 55 56
Wind_Direction
253 255 256 258 260 262 262 261 260 258 257 256 256 256 257 257 258 258 257 257 258 259 260 262 263 264 265 265 265 264 263 261 260 258 257 257 256 255 254 253 253 253 254 256 258 259 261 261 261 261 261 262 263 264 265 266 267 268 269 270 272 274 276 277 278 279 281 282 283 284 285 287 288 289 290 291 293 294 295 296 297 298 299 300 300 300
250 251 252 253 255 257 259 259 259 258 258 257 257 256 257 257 257 258 259 259 260 260 261 262 262 263 263 262 262 261 260 258 256 254 252 251 250 249 248 249 250 252 253 255 256 258 259 260 260 260 261 262 263 264 265 266 267 268 270 272 274 276 277 278 279 280 281 282 283 284 286 287 288 289 290 292 293 294 295 296 297 298 299 299 300 300
248 248 249 250 251 252 253 255 255 256 256 256 256 256 257 257 258 259 259 260 261 261 261 261 261 261 260 260 259 258 258 256 253 250 248 247 246 246 247 248 250 252 253 255 256 257 258 259 259 260 261 262 264 265 266 267 268 269 271 273 275 277 278 279 279 280 281 282 283 284 286 287 288 289 290 292 293 294 295 296 297 298 298 299 299 299
245 245 246 247 248 248 249 250 251 252 253 254 254 255 256 257 258 259 259 260 260 260 259 259 259 258 258 257 257 256 255 252 250 247 246 246 246 246 247 249 251 252 254 255 256 257 258 259 260 261 262 263 264 266 267 268 269 271 273 274 276 277 278 279 279 280 281 282 283 284 285 287 288 289 291 292 293 294 295 296 297 298 298 298 298 298
244 244 244 245 245 246 247 247 248 249 250 251 252 253 254 256 257 258 258 258 258 257 256 256 255 255 255 254 254 253 251 249 247 246 245 246 246 247 248 250 251 253 255 256 257 258 259 260 261 262 263 265 266 267 268 269 271 272 274 275 276 277 278 278 279 280 281 282 283 284 285 287 288 289 291 292 293 294 295 296 297 297 298 298 297 297
244 243 244 244 244 245 246 246 246 247 248 249 250 251 252 253 254 255 255 255 254 253 252 252 251 250 250 250 249 248 247 247 246 246 246 246 247 248 249 251 252 254 256 257 258 259 260 261 263 264 265 266 267 269 270 271 272 273 275 276 276 277 277 278 278 279 280 281 283 284 285 287 288 290 291 292 293 294 295 296 296 297 297 297 296 295
244 244 244 244 244 245 245 245 246 246 247 247 248 249 249 250 251 251 252 251 250 249 247 246 245 245 245 245 245 245 245 245 246 246 247 247 248 249 251 253 254 256 257 258 260 261 262 263 265 266 267 268 269 270 271 272 273 274 274 275 275 276 276 277 278 279 280 281 283 284 286 287 289 290 291 292 293 294 295 295 296 296 296 295 295 294
244 244 244 244 244 245 245 245 245 245 245 246 246 246 247 247 247 248 248 247 246 244 242 241 241 241 241 242 242 244 245 246 247 248 249 250 251 252 254 255 256 258 259 260 261 263 264 265 266 267 268 269 269 270 271 272 272 273 273 274 274 275 276 277 278 279 280 282 283 285 286 288 289 290 291 292 293 293 294 294 295 295 294 294 293 292
241 241 241 242 242 242 243 243 244 244 244 244 244 244 244 244 244 244 244 243 241 239 238 238 238 238 239 240 242 244 246 248 250 251 252 253 254 255 256 257 258 259 260 262 263 264 265 266 267 268 268 269 269 270 270 271 271 272 272 273 274 275 276 277 278 280 281 283 284 286 287 288 289 290 291 292 292 293 293 294 294 293 293 292 291 290
238 238 238 239 239 239 240 240 241 241 241 241 242 242 242 242 242 241 240 238 237 237 236 236 237 238 239 240 242 245 247 250 252 254 255 256 256 257 257 258 259 260 261 262 264 265 266 266 267 268 268 268 269 269 270 270 271 271 272 273 274 275 276 277 279 280 282 283 285 286 287 288 289 289 290 291 292 292 292 293 292 292 291 291 289 288
236 237 237 237 238 237 238 238 239 239 239 239 240 240 241 240 240 238 236 234 234 235 236 237 238 239 241 242 244 246 249 251 253 255 256 257 257 257 257 258 259 260 261 263 264 265 265 266 266 267 267 268 268 268 269 269 270 271 272 273 274 275 277 278 280 281 282 283 284 285 286 287 288 289 290 290 291 291 291 291 291 291 290 289 288 286
236 236 237 237 237 237 237 237 237 237 237 238 238 239 239 239 239 238 235 234 234 235 237 239 240 242 243 245 247 249 251 253 255 256 257 257 257 257 258 259 260 261 262 263 263 263 264 264 265 266 266 267 267 268 268 269 270 271 272 273 275 276 277 279 280 281 282 283 284 285 286 287 287 288 289 290 290 290 290 290 290 289 289 288 286 285
236 237 237 237 237 237 236 236 236 236 236 237 237 238 238 239 238 238 237 237 236 238 239 242 244 245 247 248 250 252 254 256 257 257 258 258 258 259 260 261 262 263 262 262 262 262 262 262 263 264 265 265 266 267 268 269 270 271 273 274 275 277 278 279 280 281 282 283 283 284 285 286 287 288 288 289 289 289 289 289 289 288 287 286 285 284
238 239 239 239 239 239 238 237 236 236 237 237 237 238 238 239 239 239 239 239 240 241 243 245 247 249 251 253 255 257 258 259 260 260 260 260 260 261 262 263 263 262 260 259 259 259 260 260 262 263 264 264 265 267 268 269 271 272 273 274 276 277 278 279 280 281 281 282 283 284 285 286 286 287 288 288 288 289 289 288 288 287 286 285 284 283
242 242 242 243 243 242 242 241 240 240 239 240 240 240 240 241 241 241 241 242 242 243 245 247 249 251 253 255 257 259 260 260 261 261 261 261 262 262 262 261 260 257 255 254 255 256 258 259 260 262 263 264 265 267 268 270 271 272 274 275 276 277 278 278 279 280 281 282 283 284 285 285 286 287 287 288 288 288 288 288 287 286 285 285 283 283
247 247 247 247 247 247 247 246 245 245 244 244 244 244 244 244 244 244 244 244 244 245 246 247 248 250 251 252 253 254 255 255 256 257 258 260 261 261 260 257 255 253 251 251 252 254 257 258 260 261 263 264 266 268 269 270 271 273 274 274 275 276 277 278 279 280 281 282 283 284 285 285 286 286 287 287 287 287 287 287 286 285 285 284 283 282
251 251 251 252 252 252 251 250 249 248 248 248 247 247 247 247 247 247 247 246 246 246 247 247 247 247 248 248 248 247 247 248 248 250 252 255 257 258 257 255 253 251 250 250 252 254 256 258 260 261 263 265 267 268 270 271 272 272 273 274 275 276 277 278 279 280 281 282 283 284 285 285 286 286 287 287 287 287 286 286 285 285 284 283 283 282
253 253 253 254 255 254 253 253 252 251 251 251 251 250 250 250 250 250 250 249 249 249 249 249 248 248 246 245 245 244 243 243 244 245 247 250 253 254 254 253 253 252 252 253 254 256 257 259 260 262 264 266 267 269 270 271 271 272 273 274 275 276 277 278 279 281 282 283 283 284 285 285 286 286 286 286 286 286 286 285 285 284 283 283 282 282
251 251 251 252 253 254 254 254 254 254 254 253 253 253 253 253 253 253 253 253 252 252 252 252 252 251 249 247 246 245 243 243 244 246 247 249 251 253 254 254 254 255 255 256 256 257 258 259 260 262 264 266 268 269 270 271 272 273 274 275 276 277 278 279 280 281 282 283 284 284 285 285 285 285 286 286 285 285 285 284 284 283 283 283 282 282
246 247 248 248 250 251 253 254 254 255 255 255 254 254 254 254 254 255 255 255 255 255 255 255 256 256 254 252 250 249 248 247 247 249 251 252 254 255 256 256 257 257 258 258 257 257 258 259 260 263 265 266 268 269 270 271 272 273 274 275 276 277 278 279 280 281 282 283 283 284 284 284 285 285 285 285 285 284 284 284 283 283 283 283 282 283
242 243 243 244 245 247 250 252 253 254 255 255 255 255 255 255 255 255 255 256 256 256 257 258 258 258 258 257 256 255 254 253 253 253 255 256 257 258 259 259 259 258 258 257 257 257 257 258 260 263 265 266 268 269 270 272 273 274 275 276 277 278 278 279 280 281 282 283 283 283 284 284 284 284 284 284 284 284 284 283 283 283 283 283 283 283
240 240 240 241 242 243 245 248 251 253 254 255 256 255 255 254 254 254 255 255 256 256 257 257 258 259 260 260 260 260 259 258 257 256 257 257 258 259 259 259 257 256 255 255 255 255 256 258 260 262 264 266 268 270 271 272 274 275 275 276 277 278 279 280 280 281 282 282 282 283 283 283 284 284 284 284 284 283 283 283 283 283 283 283 283 284
241 241 240 240 240 241 243 245 247 250 252 253 254 254 254 254 254 254 254 254 255 255 256 256 257 258 259 260 261 261 260 259 258 257 257 257 259 260 259 257 254 252 251 251 252 253 255 257 259 261 264 266 268 270 272 273 274 275 276 276 277 278 279 280 280 281 281 281 282 282 283 283 283 283 283 283 283 283 283 283 283 283 283 283 284 284
243 243 242 242 241 242 243 244 246 247 249 250 252 253 253 253 253 253 254 254 254 254 255 255 256 257 259 259 259 259 259 258 257 257 256 257 258 259 258 255 251 248 247 248 249 251 254 256 259 261 263 266 268 270 272 273 274 275 276 277 277 278 279 279 280 280 280 281 281 282 282 282 282 282 282 282 282 282 282 282 283 283 283 284 284 285
244 244 244 244 243 243 243 244 245 246 247 248 249 250 251 252 253 253 254 254 254 254 255 255 256 257 257 257 257 257 257 257 256 255 255 256 257 257 255 252 248 246 245 246 248 251 254 258 260 263 265 267 269 271 272 273 274 275 276 277 277 278 278 279 279 280 280 280 281 281 281 282 282 282 282 282 282 282 282 282 283 283 283 284 284 285
244 244 245 245 245 245 244 244 245 245 246 247 248 249 249 250 252 253 253 254 254 254 254 255 256 257 257 256 255 254 255 255 255 255 254 255 256 255 254 251 248 246 247 249 251 254 258 261 263 266 267 268 270 271 273 274 275 276 276 277 277 277 278 278 279 279 279 280 280 281 281 281 281 281 281 281 281 281 282 282 282 283 283 284 285 285
244 244 244 245 246 246 246 246 246 246 246 246 247 247 248 249 250 251 252 253 254 254 255 256 256 257 257 256 254 253 254 254 254 254 254 254 255 255 255 253 251 250 251 253 256 259 262 264 266 268 270 271 271 273 274 275 275 276 276 277 277 277 277 278 278 278 279 279 280 280 280 280 280 280 281 281 281 281 282 282 282 283 284 284 285 286
244 244 244 245 246 247 248 248 248 248 248 247 247 247 247 248 249 250 251 252 253 254 255 256 257 258 258 257 255 254 254 254 254 254 254 254 254 255 255 256 256 256 256 258 260 262 264 266 268 269 271 272 273 274 275 275 276 276 276 276 276 277 277 277 277 278 278 279 279 279 280 280 280 280 280 280 281 281 282 282 283 283 284 285 285 286
244 244 244 245 246 247 248 249 250 251 250 250 249 248 248 248 248 249 250 251 252 254 255 256 257 258 258 258 257 256 255 255 255 255 254 254 254 255 256 257 258 259 260 261 263 265 266 267 268 270 272 273 274 275 275 275 275 276 276 276 276 276 276 276 277 277 278 278 279 279 279 279 280 280 280 280 281 281 282 282 283 284 284 285 285 286
244 244 244 245 246 247 248 249 251 252 252 252 251 250 249 249 249 250 251 252 253 254 255 256 257 258 258 258 258 257 256 256 255 255 255 255 255 255 256 257 258 259 261 263 264 266 267 268 269 270 272 273 274 275 275 275 275 275 275 275 275 275 275 276 276 276 277 278 278 278 279 279 279 280 280 281 281 282 282 283 283 284 284 285 286 286
244 244 244 245 245 246 247 248 250 251 252 252 252 252 251 250 250 250 251 252 253 254 255 255 256 257 257 257 257 257 257 256 256 255 255 255 256 256 257 257 258 259 261 262 264 266 267 269 269 270 271 272 273 273 273 274 274 274 274 275 275 275 275 275 275 276 277 277 278 278 278 279 279 280 280 281 281 282 282 283 283 284 284 285 286 286
245 244 244 245 245 246 247 248 249 250 251 252 252 252 251 251 250 251 251 252 253 253 254 255 255 256 257 257 257 257 257 257 257 257 256 256 257 257 258 258 259 259 261 262 263 265 266 268 269 270 270 270 271 271 272 272 273 273 274 274 274 275 274 274 275 275 276 277 277 278 278 279 279 280 280 281 281 282 282 283 283 284 284 285 286 286
245 245 245 245 245 245 246 247 248 249 249 250 251 251 251 251 250 251 251 252 252 253 253 254 255 256 256 257 257 257 258 258 258 258 258 258 258 259 259 259 259 260 261 262 263 264 265 267 268 269 269 269 270 270 271 271 272 273 273 273 274 274 274 274 274 275 276 276 277 277 278 278 279 280 280 281 281 282 282 282 283 283 284 285 285 286
246 246 246 246 246 246 246 246 247 248 248 249 250 250 250 250 250 251 251 252 252 253 253 254 254 255 256 256 257 257 257 258 259 259 259 259 259 259 260 260 260 261 261 262 263 264 265 266 267 267 268 269 269 269 270 271 271 272 273 273 273 273 273 274 274 275 276 276 277 277 278 278 279 279 280 280 281 281 282 282 283 283 284 284 285 286
247 247 247 247 247 247 247 247 247 248 248 249 249 249 250 250 250 250 251 251 252 252 253 253 254 255 255 256 256 257 257 258 258 259 260 260 260 260 261 261 261 262 262 263 264 264 265 265 266 266 267 268 269 269 269 270 271 271 272 272 272 272 273 274 274 275 275 276 276 277 277 278 279 279 280 280 280 281 281 282 282 283 284 284 285 285
247 247 248 248 248 248 248 248 248 248 248 249 249 249 249 249 249 250 250 251 251 252 252 253 254 254 255 255 256 256 257 258 258 259 260 260 260 261 261 262 262 263 263 264 264 265 265 265 265 266 266 267 268 269 269 270 270 270 271 272 272 272 273 273 274 274 275 275 276 277 277 278 278 279 279 280 280 281 281 282 282 283 284 284 285 285
247 247 248 248 248 249 249 249 249 249 249 249 249 249 249 249 249 249 250 250 250 251 252 252 253 254 254 255 255 256 257 258 259 259 260 261 261 261 262 262 263 263 264 264 264 265 265 265 265 266 266 267 267 268 269 269 270 270 270 271 271 272 273 273 274 274 274 275 276 276 277 277 278 278 279 279 280 281 281 282 282 283 283 284 284 285
246 247 247 248 248 249 249 250 250 250 251 251 251 250 250 250 250 250 250 250 250 251 251 252 252 253 253 254 255 256 256 257 258 259 260 261 261 261 262 262 263 264 264 264 264 264 265 265 265 266 266 267 267 267 268 269 269 270 270 271 271 272 272 273 274 274 275 275 275 276 276 277 278 278 279 279 280 281 281 281 282 282 283 283 284 285
246 246 247 247 248 248 249 249 250 250 251 251 252 252 252 251 251 251 251 251 251 251 251 252 252 252 253 253 254 255 256 257 258 258 259 260 261 261 261 262 263 263 264 264 264 264 265 265 265 266 266 266 267 267 268 268 269 269 270 271 272 272 273 273 274 274 275 275 275 276 276 277 277 278 279 279 280 280 281 281 281 282 282 283 284 285
246 246 246 247 247 247 247 248 248 249 250 251 252 252 253 253 253 253 253 253 252 252 252 252 252 253 253 253 254 254 255 256 257 258 258 259 260 260 261 261 262 262 263 263 264 264 264 265 265 266 266 266 267 267 268 268 269 270 270 271 272 273 273 273 274 274 274 275 275 275 276 277 277 278 278 279 279 280 280 281 281 282 282 283 283 284
245 246 246 246 246 247 247 247 247 248 249 249 250 252 253 253 254 254 254 255 255 255 254 254 254 254 254 254 254 255 255 256 256 257 258 259 259 260 260 261 261 262 262 263 264 264 264 265 266 266 267 267 267 268 268 269 270 270 271 272 272 273 273 273 273 274 274 274 274 275 275 276 277 277 278 278 279 279 280 280 281 281 282 283 283 284
245 245 245 246 246 246 246 246 247 247 247 248 249 250 251 252 253 254 255 255 256 256 256 256 256 256 256 256 256 256 256 256 257 257 258 258 259 260 260 261 261 262 262 263 264 264 265 265 266 267 267 268 268 269 270 270 271 271 272 272 272 273 273 273 273 273 273 273 274 274 275 275 276 277 277 278 278 279 279 280 281 281 282 282 283 283
243 244 244 245 245 245 246 246 246 246 246 247 247 248 249 250 251 252 253 254 254 255 256 257 257 257 257 258 258 258 258 258 258 259 259 259 260 260 261 261 262 262 263 263 264 265 265 266 266 267 268 268 269 269 270 270 271 271 271 271 271 271 271 271 271 271 271 272 273 273 274 275 276 276 277 277 278 279 279 280 280 281 282 282 283 283
242 243 243 244 244 245 245 245 246 246 246 246 246 246 247 248 248 249 250 251 252 253 253 254 255 256 256 257 257 258 258 259 260 260 260 261 261 261 262 262 263 263 264 264 265 265 266 267 267 267 268 268 268 269 269 269 270 269 270 270 269 269 268 269 270 270 270 271 272 273 273 274 275 276 277 277 278 279 279 280 280 281 281 282 282 283
241 242 242 243 244 244 245 245 245 245 245 245 245 246 246 246 247 247 248 248 249 250 250 251 252 253 253 254 255 256 256 257 258 259 259 260 260 261 261 262 263 263 264 264 264 265 265 265 266 266 267 267 267 267 267 267 267 267 267 267 267 267 267 268 268 269 269 270 271 272 273 274 275 276 277 277 278 278 279 279 280 280 281 281 282 282
240 241 242 242 243 243 244 244 244 245 245 245 245 245 245 245 246 246 246 247 247 248 248 249 250 250 251 252 252 253 253 254 255 256 256 257 257 258 259 259 260 261 261 262 263 263 263 263 263 264 264 264 264 264 264 264 264 264 264 265 265 265 266 266 267 268 269 270 271 272 273 274 275 276 276 277 277 278 278 279 280 280 281 282 282 283
240 240 241 242 242 243 243 244 244 244 244 244 245 245 245 245 245 246 246 246 247 247 247 248 248 249 249 250 251 251 252 252 253 254 254 255 255 256 257 257 258 259 259 260 260 261 261 261 262 262 262 261 261 262 262 262 262 262 262 263 264 264 265 266 266 267 268 269 270 271 273 274 274 275 276 277 277 278 279 279 280 280 281 282 282 283
239 240 240 241 241 242 243 243 243 244 244 244 244 245 245 245 245 246 246 246 247 247 247 248 248 249 249 250 250 251 251 252 253 254 254 255 255 256 257 257 258 258 259 259 260 260 261 261 261 261 261 261 261 262 262 262 262 262 262 263 264 264 265 266 267 268 269 270 271 272 273 274 274 275 276 277 277 278 279 280 280 281 281 281 282 282
239 239 240 240 241 241 242 242 243 243 243 244 244 245 245 245 246 246 246 247 247 248 248 248 249 249 250 250 251 251 252 252 253 254 255 255 256 257 257 258 259 259 260 260 261 261 262 262 263 263 263 263 263 263 264 264 263 264 264 264 265 266 266 267 268 269 270 271 271 272 273 274 275 275 276 277 278 279 279 280 280 280 280 280 281 281
239 239 240 240 240 241 241 242 242 243 243 243 244 244 245 245 246 246 247 247 248 248 249 249 250 250 250 251 251 252 252 253 254 254 255 256 256 257 258 258 259 260 260 261 261 262 262 263 263 264 264 265 265 265 265 265 266 266 266 266 266 267 267 268 269 270 271 272 272 273 274 274 275 276 276 277 278 279 279 279 279 279 279 279 280 280
239 239 239 240 240 241 241 242 242 242 243 243 243 244 244 245 246 246 247 248 248 249 249 250 250 251 251 252 252 253 253 254 254 255 255 256 257 257 258 258 259 260 260 261 261 262 262 263 263 264 265 265 265 266 266 266 267 267 267 267 268 268 268 269 270 271 272 272 273 274 274 275 275 276 276 277 277 278 278 278 278 278 278 279 280 280
Height
5672 5673 5674 5676 5677 5677 5677 5678 5679 5679 5680 5681 5682 5683 5684 5685 5685 5686 5687 5688 5689 5689 5690 5691 5692 5693 5694 5694 5696 5697 5698 5699 5699 5699 5699 5699 5700 5700 5700 5701 5701 5702 5702 5703 5703 5704 5704 5704 5705 5705 5705 5705 5705 5704 5704 5704 5704 5704 5704 5704 5704 5703 5703 5703 5702 5702 5702 5702 5702 5701 5701 5701 5700 5699 5699 5698 5698 5697 5697 5696 5696 5695 5694 5694 5693 5693
5667 5668 5669 5671 5672 5673 5673 5674 5675 5676 5676 5677 5678 5679 5679 5680 5681 5681 5682 5683 5684 5684 5685 5686 5687 5688 5689 5690 5691 5693 5694 5694 5695 5695 5696 5695 5695 5696 5696 5697 5697 5698 5699 5699 5699 5700 5700 5700 5701 5701 5701 5701 5700 5700 5700 5700 5700 5700 5700 5700 5699 5699 5699 5699 5699 5698 5698 5698 5698 5698 5697 5697 5696 5696 5695 5694 5694 5693 5693 5692 5692 5691 5691 5690 5689 5689
5663 5664 5664 5665 5667 5669 5669 5670 5671 5672 5673 5673 5674 5674 5675 5676 5677 5677 5678 5679 5679 5680 5680 5681 5683 5684 5685 5686 5687 5688 5689 5689 5690 5691 5691 5691 5691 5691 5692 5693 5694 5694 5695 5695 5696 5696 5696 5696 5697 5697 5697 5697 5696 5696 5696 5696 5696 5696 5696 5696 5696 5695 5695 5695 5695 5694 5694 5694 5694 5694 5693 5693 5692 5692 5691 5691 5690 5689 5689 5689 5688 5687 5687 5686 5686 5685
5658 5659 5659 5660 5662 5664 5665 5666 5667 5668 5669 5669 5669 5670 5671 5672 5673 5673 5674 5674 5675 5675 5676 5677 5678 5679 5680 5681 5682 5684 5684 5685 5686 5686 5686 5687 5687 5688 5689 5689 5690 5690 5691 5691 5692 5692 5692 5692 5693 5693 5693 5693 5693 5693 5692 5692 5692 5692 5692 5692 5692 5691 5691 5691 5691 5691 5690 5690 5690 5690 5689 5689 5689 5688 5687 5687 5686 5686 5685 5684 5684 5684 5683 5682 5682 5681
5654 5655 5655 5656 5658 5659 5659 5661 5662 5663 5664 5664 5665 5665 5666 5667 5668 5669 5669 5670 5671 5671 5671 5672 5673 5674 5676 5677 5678 5679 5680 5681 5681 5682 5683 5683 5684 5684 5685 5685 5686 5686 5687 5687 5688 5688 5688 5688 5689 5689 5689 5689 5689 5689 5689 5688 5688 5688 5688 5688 5688 5687 5687 5687 5687 5687 5687 5686 5686 5686 5685 5685 5684 5684 5684 5683 5682 5682 5681 5681 5680 5679 5679 5679 5678 5678
5649 5650 5651 5652 5653 5654 5654 5656 5657 5658 5659 5660 5660 5661 5662 5663 5664 5664 5665 5665 5666 5666 5667 5668 5669 5670 5672 5673 5674 5675 5676 5677 5678 5679 5679 5679 5680 5680 5681 5681 5682 5682 5682 5683 5683 5684 5684 5684 5684 5684 5684 5685 5685 5684 5684 5684 5684 5684 5684 5684 5684 5683 5683 5683 5683 5683 5683 5682 5682 5682 5681 5681 5680 5680 5679 5679 5678 5678 5677 5677 5676 5676 5675 5675 5674 5674
5645 5646 5647 5648 5649 5649 5650 5651 5652 5653 5655 5655 5656 5657 5657 5658 5659 5659 5660 5660 5661 5662 5662 5664 5665 5666 5668 5669 5669 5671 5672 5673 5674 5675 5675 5676 5676 5676 5677 5677 5677 5678 5678 5678 5679 5679 5680 5680 5680 5680 5681 5681 5681 5681 5680 5680 5680 5679 5679 5679 5679 5679 5679 5679 5679 5679 5679 5678 5678 5678 5677 5677 5676 5676 5675 5675 5674 5674 5673 5673 5672 5672 5672 5671 5671 5670
5641 5642 5644 5644 5645 5646 5647 5647 5648 5649 5651 5652 5652 5653 5654 5654 5655 5655 5656 5656 5657 5658 5659 5660 5661 5662 5663 5664 5666 5667 5668 5669 5670 5671 5672 5672 5672 5672 5673 5673 5673 5673 5674 5674 5674 5675 5675 5676 5676 5677 5677 5677 5677 5677 5676 5676 5676 5675 5675 5675 5675 5675 5675 5675 5675 5675 5674 5674 5674 5674 5673 5673 5672 5672 5671 5671 5670 5670 5669 5669 5669 5668 5668 5667 5667 5667
5638 5639 5640 5641 5642 5643 5643 5644 5645 5646 5647 5648 5649 5649 5650 5651 5651 5652 5653 5653 5653 5654 5654 5656 5657 5658 5659 5660 5662 5663 5664 5665 5666 5667 5667 5668 5668 5668 5668 5669 5669 5669 5669 5670 5670 5671 5671 5672 5672 5672 5673 5673 5673 5672 5672 5672 5672 5671 5671 5671 5671 5671 5671 5671 5671 5670 5670 5670 5670 5669 5669 5669 5668 5668 5667 5667 5666 5666 5666 5665 5665 5664 5664 5664 5663 5663
5634 5635 5636 5637 5638 5639 5640 5640 5641 5642 5643 5644 5644 5645 5646 5647 5648 5649 5649 5649 5649 5650 5651 5652 5653 5654 5655 5656 5658 5659 5660 5661 5661 5662 5663 5663 5664 5664 5664 5664 5665 5665 5665 5666 5666 5667 5667 5668 5668 5668 5668 5668 5668 5668 5668 5668 5667 5667 5667 5667 5667 5667 5667 5667 5667 5666 5666 5666 5666 5665 5665 5665 5664 5664 5664 5663 5663 5662 5662 5662 5661 5661 5660 5660 5659 5659
5629 5631 5632 5633 5634 5635 5636 5636 5637 5638 5639 5640 5640 5641 5642 5643 5644 5645 5645 5646 5646 5647 5648 5648 5649 5649 5651 5652 5653 5654 5655 5656 5657 5657 5658 5659 5659 5660 5660 5660 5661 5661 5661 5662 5662 5663 5663 5663 5664 5664 5664 5664 5664 5664 5664 5664 5663 5663 5663 5663 5663 5663 5663 5663 5663 5662 5662 5662 5662 5661 5661 5661 5661 5660 5660 5659 5659 5659 5658 5658 5657 5657 5656 5656 5655 5655
5624 5625 5627 5628 5629 5630 5632 5632 5633 5634 5635 5636 5636 5637 5638 5638 5639 5640 5641 5642 5642 5643 5644 5644 5644 5645 5646 5647 5648 5649 5650 5651 5652 5652 5653 5654 5655 5655 5656 5656 5656 5657 5657 5658 5658 5659 5659 5659 5659 5659 5659 5659 5659 5659 5659 5659 5659 5659 5659 5659 5659 5659 5659 5659 5659 5658 5658 5658 5658 5658 5658 5657 5657 5657 5656 5656 5655 5655 5654 5654 5654 5653 5653 5652 5651 5651
5619 5620 5622 5623 5624 5625 5626 5628 5629 5630 5630 5631 5631 5632 5633 5634 5635 5636 5636 5637 5637 5638 5639 5640 5640 5641 5642 5643 5644 5644 5645 5646 5647 5648 5649 5649 5650 5650 5651 5651 5652 5652 5653 5654 5654 5654 5655 5655 5655 5655 5655 5655 5655 5655 5655 5655 5655 5655 5655 5655 5655 5655 5654 5654 5654 5654 5654 5654 5654 5654 5654 5654 5653 5653 5652 5652 5651 5651 5651 5650 5649 5649 5649 5648 5647 5647
5614 5616 5617 5618 5619 5620 5621 5623 5624 5624 5625 5626 5626 5627 5629 5629 5630 5631 5631 5632 5632 5633 5634 5636 5637 5637 5638 5639 5639 5640 5641 5641 5642 5643 5644 5645 5645 5646 5647 5647 5647 5648 5649 5649 5650 5650 5650 5650 5650 5650 5650 5651 5651 5651 5651 5651 5651 5651 5651 5651 5651 5651 5650 5650 5650 5650 5650 5650 5650 5650 5650 5650 5649 5649 5648 5648 5648 5647 5647 5646 5645 5645 5644 5644 5644 5643
5609 5610 5612 5613 5614 5615 5617 5618 5619 5619 5620 5621 5622 5623 5624 5624 5625 5625 5626 5627 5627 5629 5630 5631 5632 5633 5634 5635 5636 5636 5637 5638 5638 5639 5640 5640 5641 5642 5643 5644 5644 5644 5644 5645 5646 5645 5645 5646 5646 5646 5646 5646 5646 5646 5646 5646 5646 5646 5647 5647 5647 5647 5647 5646 5646 5646 5647 5647 5646 5646 5646 5646 5645 5645 5644 5644 5643 5643 5642 5642 5641 5641 5640 5640 5639 5639
5604 5605 5607 5608 5609 5610 5612 5613 5614 5615 5616 5617 5618 5618 5619 5619 5619 5620 5621 5622 5623 5624 5625 5627 5628 5629 5630 5631 5632 5633 5634 5634 5635 5635 5636 5637 5637 5637 5639 5640 5640 5640 5640 5641 5641 5641 5641 5641 5641 5642 5641 5642 5641 5641 5642 5642 5642 5642 5642 5642 5642 5643 5643 5643 5643 5643 5643 5643 5643 5642 5642 5642 5641 5640 5640 5639 5639 5639 5638 5638 5637 5637 5636 5636 5635 5635
5599 5600 5602 5603 5604 5605 5606 5608 5609 5610 5611 5612 5612 5613 5614 5614 5614 5615 5617 5617 5618 5619 5620 5622 5623 5625 5626 5627 5628 5629 5629 5631 5631 5632 5633 5634 5633 5633 5634 5636 5637 5636 5636 5637 5637 5637 5636 5637 5637 5637 5637 5637 5637 5637 5637 5637 5638 5638 5638 5638 5638 5639 5639 5639 5639 5639 5639 5639 5639 5638 5638 5637 5637 5636 5636 5635 5635 5634 5634 5634 5633 5633 5632 5632 5631 5631
5594 5595 5597 5598 5599 5600 5601 5603 5604 5604 5605 5606 5607 5608 5609 5609 5610 5611 5612 5612 5614 5614 5616 5617 5619 5620 5622 5623 5624 5624 5625 5627 5627 5627 5629 5629 5629 5629 5630 5632 5633 5633 5633 5633 5633 5633 5632 5632 5632 5632 5632 5632 5632 5632 5632 5633 5633 5634 5634 5634 5634 5634 5634 5635 5635 5635 5635 5634 5634 5634 5634 5633 5632 5632 5631 5631 5630 5630 5630 5629 5629 5628 5628 5627 5627 5627
5590 5591 5593 5594 5594 5595 5596 5597 5598 5599 5600 5600 5601 5602 5603 5604 5605 5606 5607 5608 5609 5610 5611 5613 5614 5616 5617 5619 5618 5618 5620 5622 5623 5623 5624 5625 5625 5625 5626 5628 5629 5629 5629 5629 5629 5628 5628 5628 5627 5627 5627 5627 5627 5628 5628 5629 5629 5629 5629 5630 5630 5630 5630 5630 5630 5630 5630 5630 5630 5629 5629 5629 5628 5628 5627 5627 5626 5626 5625 5625 5624 5624 5624 5623 5623 5623
5586 5588 5589 5590 5590 5591 5592 5592 5593 5594 5594 5595 5596 5597 5598 5599 5599 5601 5602 5603 5604 5605 5606 5608 5609 5610 5612 5613 5613 5613 5615 5617 5619 5619 5619 5620 5620 5620 5621 5623 5624 5624 5624 5624 5624 5623 5623 5623 5622 5622 5622 5623 5623 5623 5624 5624 5625 5625 5626 5626 5626 5626 5626 5626 5626 5626 5626 5626 5625 5625 5624 5624 5624 5623 5623 5622 5622 5621 5621 5620 5620 5620 5619 5619 5619 5619
5582 5583 5584 5585 5586 5587 5588 5588 5588 5589 5589 5590 5591 5593 5594 5594 5595 5596 5597 5598 5599 5600 5601 5603 5604 5605 5606 5608 5608 5609 5610 5613 5615 5615 5614 5615 5616 5616 5616 5618 5619 5620 5620 5619 5618 5618 5618 5618 5617 5617 5618 5618 5619 5619 5620 5620 5621 5621 5622 5622 5622 5622 5622 5622 5622 5622 5622 5621 5621 5621 5620 5619 5619 5619 5618 5618 5618 5617 5617 5616 5616 5615 5615 5615 5615 5614
5577 5578 5578 5579 5581 5583 5583 5583 5584 5584 5585 5586 5588 5589 5589 5589 5591 5592 5592 5593 5594 5595 5596 5598 5599 5600 5601 5603 5604 5604 5606 5609 5610 5610 5610 5611 5612 5612 5611 5613 5615 5615 5615 5613 5613 5613 5613 5613 5613 5613 5614 5614 5615 5615 5616 5616 5617 5617 5617 5618 5618 5618 5618 5618 5618 5618 5617 5617 5617 5616 5616 5615 5615 5614 5614 5614 5613 5613 5612 5612 5611 5611 5611 5611 5610 5610
5572 5572 5573 5574 5576 5577 5577 5578 5579 5580 5582 5583 5584 5584 5584 5585 5586 5587 5588 5589 5590 5591 5592 5594 5595 5596 5598 5599 5600 5600 5602 5604 5605 5606 5606 5607 5607 5607 5606 5609 5610 5610 5609 5608 5607 5608 5609 5609 5608 5609 5609 5610 5611 5611 5612 5613 5613 5613 5613 5613 5613 5613 5613 5613 5613 5613 5613 5613 5612 5612 5611 5611 5610 5610 5609 5609 5609 5608 5608 5608 5607 5607 5607 5606 5606 5606
5566 5567 5567 5569 5570 5571 5572 5573 5574 5575 5577 5579 5580 5580 5580 5581 5582 5583 5583 5584 5586 5587 5589 5590 5592 5593 5595 5596 5596 5597 5597 5599 5600 5602 5603 5603 5603 5602 5602 5604 5605 5605 5603 5602 5602 5603 5604 5604 5604 5604 5605 5607 5607 5607 5608 5608 5609 5609 5609 5609 5609 5609 5609 5609 5609 5609 5609 5608 5608 5607 5607 5606 5606 5605 5605 5605 5604 5604 5604 5603 5603 5603 5602 5602 5602 5601
5559 5560 5561 5563 5564 5566 5567 5568 5569 5570 5572 5574 5575 5575 5576 5577 5578 5578 5579 5580 5582 5584 5585 5587 5588 5589 5590 5591 5592 5593 5593 5594 5595 5597 5599 5599 5598 5598 5598 5599 5600 5600 5598 5597 5597 5599 5600 5600 5600 5600 5601 5602 5603 5603 5604 5604 5604 5604 5604 5604 5604 5604 5604 5604 5604 5604 5604 5604 5603 5603 5602 5602 5601 5601 5601 5600 5600 5599 5599 5599 5599 5598 5598 5598 5597 5597
5554 5554 5555 5556 5558 5559 5561 5563 5564 5565 5567 5569 5569 5570 5571 5572 5573 5574 5575 5577 5578 5579 5581 5583 5584 5585 5585 5586 5588 5589 5588 5589 5590 5592 5594 5594 5594 5593 5593 5594 5595 5595 5594 5593 5593 5594 5597 5597 5596 5596 5597 5598 5599 5599 5599 5599 5599 5599 5599 5599 5599 5599 5599 5599 5599 5599 5599 5599 5599 5599 5598 5598 5597 5597 5596 5596 5595 5595 5595 5594 5594 5594 5594 5593 5593 5592
5547 5549 5549 5551 5552 5553 5555 5556 5558 5559 5561 5563 5564 5565 5566 5568 5569 5571 5572 5572 5573 5574 5576 5578 5579 5580 5580 5582 5583 5584 5584 5584 5585 5587 5589 5589 5589 5589 5589 5589 5590 5591 5591 5589 5589 5590 5592 5593 5592 5591 5592 5593 5594 5594 5594 5595 5595 5595 5595 5595 5595 5595 5595 5595 5595 5595 5595 5594 5594 5594 5594 5593 5593 5592 5592 5591 5591 5591 5590 5590 5590 5589 5589 5589 5588 5587
5541 5542 5544 5544 5546 5547 5549 5550 5552 5553 5555 5557 5559 5560 5561 5563 5565 5567 5567 5567 5568 5570 5572 5574 5574 5574 5575 5577 5578 5579 5579 5580 5581 5582 5583 5584 5585 5585 5584 5584 5585 5587 5587 5585 5584 5585 5587 5588 5587 5587 5587 5588 5588 5589 5590 5590 5590 5590 5590 5590 5590 5590 5590 5590 5590 5590 5590 5590 5590 5589 5589 5589 5588 5588 5587 5587 5587 5586 5586 5585 5585 5585 5584 5584 5583 5582
5534 5536 5538 5539 5540 5541 5543 5544 5545 5547 5549 5551 5553 5554 5556 5558 5560 5562 5561 5561 5563 5565 5568 5568 5569 5569 5570 5572 5573 5573 5575 5576 5576 5576 5578 5580 5581 5580 5579 5580 5581 5582 5582 5581 5580 5580 5582 5582 5583 5583 5583 5583 5583 5584 5585 5585 5585 5585 5585 5585 5585 5585 5585 5585 5586 5585 5585 5585 5585 5584 5584 5584 5583 5583 5582 5582 5582 5582 5581 5581 5580 5580 5579 5579 5578 5578
5528 5530 5531 5533 5534 5536 5537 5538 5540 5541 5543 5544 5547 5549 5551 5553 5555 5556 5555 5555 5558 5561 5562 5562 5563 5564 5565 5566 5567 5569 5570 5570 5570 5571 5573 5575 5576 5574 5574 5575 5576 5576 5576 5576 5576 5576 5576 5576 5577 5579 5579 5579 5579 5579 5579 5580 5581 5581 5580 5580 5580 5580 5581 5581 5581 5581 5581 5580 5580 5580 5579 5579 5578 5578 5578 5577 5577 5577 5576 5576 5575 5575 5575 5574 5573 5573
5522 5524 5526 5527 5529 5530 5531 5533 5534 5535 5537 5539 5541 5543 5545 5548 5549 5549 5549 5550 5553 5555 5556 5557 5557 5558 5559 5561 5563 5564 5564 5564 5564 5565 5568 5570 5570 5569 5568 5570 5571 5571 5571 5571 5572 5572 5572 5571 5572 5574 5575 5576 5575 5574 5574 5575 5576 5576 5576 5575 5575 5575 5576 5576 5576 5576 5576 5575 5575 5575 5574 5574 5574 5573 5573 5573 5572 5572 5571 5571 5571 5570 5570 5569 5569 5568
5516 5518 5520 5521 5523 5524 5526 5527 5529 5530 5531 5533 5535 5537 5540 5542 5543 5544 5544 5546 5547 5549 5550 5551 5552 5552 5553 5555 5557 5559 5559 5558 5558 5559 5562 5564 5564 5563 5563 5565 5566 5566 5566 5567 5568 5569 5569 5568 5568 5569 5570 5572 5571 5570 5570 5570 5570 5571 5571 5571 5571 5570 5571 5571 5571 5571 5571 5571 5570 5570 5569 5569 5569 5568 5568 5568 5567 5567 5567 5566 5566 5565 5565 5564 5564 5563
5510 5512 5514 5515 5516 5518 5520 5521 5523 5524 5526 5528 5529 5532 5534 5536 5537 5538 5539 5540 5542 5543 5545 5546 5546 5547 5548 5549 5551 5552 5553 5553 5552 5553 5556 5558 5559 5558 5558 5560 5561 5562 5562 5562 5564 5564 5565 5565 5564 5564 5565 5566 5566 5566 5565 5565 5565 5566 5566 5566 5566 5566 5565 5566 5566 5567 5566 5566 5565 5565 5564 5564 5564 5564 5563 5563 5563 5562 5562 5561 5561 5561 5560 5560 5559 5558
5503 5505 5507 5509 5510 5512 5514 5515 5517 5519 5520 5522 5524 5526 5528 5529 5531 5532 5533 5534 5536 5537 5539 5540 5540 5541 5542 5543 5545 5546 5547 5547 5547 5548 5549 5552 5553 5553 5553 5554 5556 5557 5557 5558 5558 5559 5560 5561 5561 5560 5560 5560 5560 5560 5561 5561 5561 5561 5561 5561 5561 5561 5561 5561 5561 5562 5561 5561 5560 5560 5559 5559 5559 5559 5559 5558 5558 5558 5557 5557 5556 5556 5556 5555 5554 5554
5496 5499 5500 5502 5504 5505 5507 5509 5510 5512 5514 5515 5517 5519 5521 5523 5525 5526 5528 5529 5530 5531 5532 5534 5534 5535 5536 5538 5539 5540 5541 5541 5542 5543 5544 5546 5548 5548 5549 5549 5550 5552 5553 5553 5553 5554 5555 5555 5556 5556 5555 5555 5555 5555 5555 5556 5556 5556 5556 5556 5556 5556 5556 5556 5557 5557 5556 5556 5555 5555 5554 5554 5554 5554 5554 5553 5553 5553 5553 5552 5551 5551 5551 5550 5550 5549
5489 5492 5494 5496 5497 5499 5501 5502 5504 5505 5507 5509 5510 5512 5514 5516 5518 5520 5521 5523 5524 5525 5526 5527 5528 5529 5531 5532 5534 5535 5535 5535 5536 5538 5540 5541 5542 5543 5544 5545 5545 5546 5548 5548 5548 5549 5549 5550 5550 5551 5551 5551 5550 5549 5549 5550 5551 5552 5551 5551 5551 5551 5551 5551 5552 5552 5551 5551 5550 5550 5549 5549 5549 5549 5549 5549 5548 5548 5548 5547 5547 5546 5546 5545 5544 5544
5483 5485 5487 5489 5491 5493 5494 5496 5497 5499 5500 5502 5503 5505 5507 5509 5511 5513 5515 5516 5518 5519 5520 5521 5522 5524 5525 5527 5529 5529 5530 5530 5532 5534 5535 5536 5537 5538 5539 5540 5540 5541 5543 5543 5543 5543 5544 5544 5545 5546 5546 5546 5546 5545 5545 5545 5546 5547 5547 5546 5546 5546 5546 5546 5546 5547 5546 5546 5545 5545 5544 5545 5545 5544 5544 5544 5544 5543 5543 5542 5542 5541 5541 5540 5539 5539
5477 5479 5481 5483 5485 5486 5488 5489 5491 5492 5494 5495 5496 5498 5500 5502 5504 5506 5508 5510 5511 5513 5514 5516 5517 5519 5520 5522 5523 5524 5525 5526 5527 5529 5530 5531 5532 5533 5534 5535 5535 5536 5537 5538 5538 5538 5539 5539 5540 5541 5541 5541 5541 5541 5540 5540 5540 5541 5541 5541 5541 5542 5541 5541 5541 5541 5541 5541 5540 5540 5539 5539 5539 5539 5539 5539 5539 5538 5538 5537 5536 5536 5536 5535 5534 5534
5471 5473 5475 5477 5479 5480 5482 5484 5485 5486 5487 5488 5489 5491 5493 5495 5498 5500 5502 5504 5505 5507 5508 5510 5511 5513 5515 5517 5518 5519 5520 5522 5523 5524 5525 5526 5527 5528 5529 5530 5530 5531 5531 5532 5533 5534 5534 5534 5535 5535 5536 5536 5536 5536 5536 5535 5535 5535 5535 5536 5536 5536 5536 5536 5536 5536 5536 5535 5535 5534 5534 5534 5534 5534 5534 5534 5533 5533 5533 5532 5531 5531 5530 5530 5529 5529
5464 5466 5468 5470 5472 5474 5476 5478 5479 5480 5481 5483 5484 5485 5487 5489 5492 5494 5496 5498 5499 5501 5502 5504 5506 5508 5509 5511 5513 5514 5515 5517 5518 5519 5520 5521 5522 5523 5524 5525 5525 5525 5526 5527 5528 5529 5529 5530 5530 5530 5531 5531 5531 5531 5531 5530 5530 5530 5531 5531 5531 5531 5530 5531 5531 5531 5531 5530 5530 5529 5529 5529 5529 5529 5529 5529 5529 5528 5527 5527 5526 5525 5525 5525 5525 5524
5458 5460 5462 5464 5465 5468 5469 5471 5472 5474 5475 5477 5479 5481 5483 5484 5486 5488 5489 5491 5493 5494 5496 5498 5499 5501 5503 5505 5507 5509 5510 5511 5513 5514 5515 5516 5517 5518 5518 5519 5520 5520 5521 5522 5523 5524 5524 5525 5525 5525 5525 5526 5526 5526 5526 5525 5525 5525 5526 5527 5527 5526 5525 5526 5526 5526 5525 5525 5524 5524 5524 5524 5524 5524 5524 5524 5523 5523 5522 5522 5521 5520 5520 5519 5520 5519
5452 5454 5455 5457 5459 5461 5462 5464 5466 5468 5470 5472 5474 5476 5478 5480 5481 5483 5484 5486 5487 5489 5490 5491 5494 5495 5497 5499 5500 5502 5504 5506 5507 5509 5510 5511 5512 5512 5513 5514 5514 5515 5516 5517 5518 5518 5519 5520 5520 5520 5520 5520 5521 5521 5521 5520 5520 5521 5522 5522 5522 5521 5520 5520 5520 5521 5521 5520 5519 5519 5519 5519 5519 5519 5519 5519 5518 5518 5517 5517 5516 5515 5515 5514 5514 5514
5445 5447 5448 5450 5452 5454 5455 5458 5460 5463 5465 5467 5470 5472 5473 5475 5477 5479 5480 5482 5483 5484 5485 5486 5488 5490 5492 5493 5494 5496 5498 5500 5501 5503 5504 5505 5506 5507 5508 5508 5509 5509 5511 5512 5513 5513 5513 5514 5515 5515 5515 5515 5516 5516 5516 5515 5516 5516 5517 5517 5517 5516 5516 5515 5514 5515 5515 5515 5514 5514 5514 5514 5514 5514 5514 5514 5513 5512 5512 5511 5511 5510 5510 5509 5509 5509
5438 5440 5442 5444 5446 5448 5450 5453 5455 5457 5459 5462 5464 5466 5468 5469 5472 5474 5475 5477 5478 5479 5480 5482 5484 5485 5487 5488 5489 5491 5493 5494 5496 5497 5499 5499 5500 5501 5502 5503 5503 5504 5505 5506 5507 5508 5508 5509 5509 5510 5510 5510 5510 5511 5511 5511 5511 5511 5511 5511 5511 5511 5511 5510 5509 5509 5510 5510 5509 5509 5509 5509 5509 5509 5509 5509 5508 5507 5507 5506 5505 5505 5504 5504 5504 5504
5432 5434 5436 5438 5440 5442 5445 5447 5449 5451 5454 5456 5459 5460 5462 5464 5466 5468 5470 5472 5473 5474 5476 5477 5479 5481 5483 5484 5485 5487 5489 5490 5491 5492 5494 5494 5495 5496 5497 5497 5498 5499 5500 5501 5502 5503 5503 5504 5504 5504 5504 5505 5506 5506 5506 5506 5506 5506 5506 5506 5506 5506 5506 5505 5504 5504 5505 5504 5504 5504 5504 5505 5505 5505 5504 5504 5503 5502 5502 5501 5500 5500 5499 5499 5499 5498
5426 5428 5430 5432 5434 5437 5439 5441 5443 5445 5448 5451 5453 5454 5456 5458 5460 5462 5464 5466 5467 5469 5470 5472 5474 5476 5478 5479 5480 5482 5484 5486 5487 5488 5489 5490 5490 5491 5492 5493 5493 5494 5495 5495 5496 5497 5498 5499 5499 5499 5500 5500 5501 5501 5501 5502 5502 5502 5501 5501 5501 5501 5500 5500 5499 5499 5499 5500 5499 5499 5499 5500 5500 5500 5499 5499 5498 5497 5496 5496 5495 5495 5494 5494 5493 5493
5419 5421 5424 5426 5428 5431 5433 5434 5437 5440 5443 5444 5446 5448 5450 5452 5454 5457 5458 5460 5462 5463 5465 5467 5469 5471 5472 5473 5475 5477 5479 5480 5481 5483 5484 5485 5485 5486 5487 5488 5488 5489 5490 5490 5491 5492 5493 5494 5494 5495 5495 5496 5496 5496 5496 5497 5497 5497 5496 5495 5496 5496 5495 5495 5494 5494 5494 5495 5495 5495 5495 5496 5496 5495 5494 5494 5493 5492 5491 5490 5489 5489 5489 5488 5488 5487
5412 5415 5417 5420 5422 5424 5427 5429 5431 5434 5436 5438 5440 5442 5444 5447 5449 5451 5452 5454 5455 5458 5459 5461 5463 5465 5467 5468 5470 5472 5474 5475 5476 5477 5479 5479 5480 5481 5482 5482 5483 5484 5484 5485 5486 5487 5488 5489 5489 5490 5491 5491 5491 5491 5491 5492 5492 5492 5491 5491 5491 5491 5490 5490 5489 5489 5490 5490 5490 5490 5490 5491 5491 5490 5489 5489 5488 5487 5486 5485 5484 5484 5483 5483 5483 5482
5406 5409 5411 5414 5416 5418 5420 5423 5425 5428 5430 5433 5434 5437 5439 5441 5443 5444 5446 5448 5449 5452 5454 5456 5458 5459 5461 5463 5464 5466 5468 5469 5471 5472 5473 5474 5475 5476 5476 5477 5478 5478 5479 5479 5480 5482 5483 5483 5484 5484 5485 5486 5486 5486 5486 5486 5486 5487 5486 5486 5486 5486 5485 5485 5484 5484 5485 5485 5485 5485 5486 5486 5486 5485 5485 5484 5483 5482 5481 5480 5479 5478 5478 5478 5477 5477
5399 5402 5405 5407 5410 5412 5414 5417 5419 5422 5425 5427 5429 5431 5433 5435 5437 5439 5440 5442 5444 5446 5449 5450 5452 5454 5456 5457 5459 5460 5462 5464 5465 5466 5468 5469 5469 5470 5471 5472 5472 5473 5474 5474 5475 5476 5477 5478 5479 5479 5479 5480 5481 5481 5481 5480 5480 5481 5481 5481 5481 5481 5481 5480 5479 5479 5480 5480 5481 5481 5481 5481 5480 5480 5480 5480 5479 5477 5476 5475 5474 5473 5472 5472 5472 5472
5393 5396 5399 5401 5404 5406 5409 5411 5414 5416 5419 5421 5423 5425 5427 5429 5431 5433 5435 5437 5439 5441 5443 5444 5446 5449 5450 5452 5453 5455 5457 5459 5460 5461 5462 5463 5464 5465 5466 5466 5467 5468 5469 5469 5469 5470 5472 5473 5474 5474 5474 5474 5476 5476 5476 5475 5475 5475 5475 5475 5475 5475 5476 5475 5474 5474 5475 5475 5476 5476 5476 5475 5475 5475 5475 5475 5474 5473 5471 5470 5469 5468 5467 5467 5467 5467